Regional Weather Roundup
Issued by NWS

Home | Current Version | Previous Version | Text Only | Print | Product List | Glossary Off
Versions: 1 2 3 4 5 6 7 8 9 10 11 12 13 14 15 16 17 18 19 20 21 22 23 24 25 26 27 28 29 30 31 32 33 34 35 36 37 38 39 40 41 42 43 44 45 46 47 48 49 50

245
ASUS43 KBIS 300002
RWRND

NORTH DAKOTA REGIONAL WEATHER ROUNDUP
NATIONAL WEATHER SERVICE BISMARCK ND
700 PM CDT WED MAR 29 2017

NOTE: "FAIR" INDICATES FEW OR NO CLOUDS BELOW 12,000 FEET WITH NO
SIGNIFICANT WEATHER AND/OR OBSTRUCTIONS TO VISIBILITY.


NDZ001>003-009>011-017-300100-
NORTHWEST NORTH DAKOTA

CITY           SKY/WX    TMP DP  RH WIND       PRES   REMARKS
WILLISTON      FAIR      61  30  31 W9        29.86F
6HR MIN TEMP:  55; 6HR MAX TEMP:  63;

MINOT          PTSUNNY   53  46  77 N3        29.87F
MINOT AFB      MOSUNNY   51  47  87 E3        29.86F
$$

NDZ018>021-031>035-040>046-300100-
SOUTHWEST NORTH DAKOTA

CITY           SKY/WX    TMP DP  RH WIND       PRES   REMARKS
BISMARCK       CLOUDY    62  38  40 S14       29.93F
6HR MIN TEMP:  59; 6HR MAX TEMP:  65;

DICKINSON      FAIR      60  25  26 SW13      29.86F
GARRISON         N/A     53  39  59 S6        29.87F
6HR MIN TEMP:  52; 6HR MAX TEMP:  61;

HETTINGER ARPT CLOUDY    58  34  40 S12       29.91F
$$

NDZ004>008-012>016-024-026-027-054-300100-
NORTHEAST NORTH DAKOTA

CITY           SKY/WX    TMP DP  RH WIND       PRES   REMARKS
GRAND FORKS    PTCLDY    57  43  59 S13       30.01S
GRND FRKS AFB  CLEAR     57  41  55 S15       30.00S
DEVILS LAKE    CLOUDY    55  39  54 S7        29.95F
$$

NDZ022-023-025-028>030-036>039-047>053-300100-
SOUTHEAST NORTH DAKOTA

CITY           SKY/WX    TMP DP  RH WIND       PRES   REMARKS
FARGO          CLOUDY    57  36  45 S18       30.05R
6HR MIN TEMP:  56; 6HR MAX TEMP:  62;

JAMESTOWN      FAIR      58  32  37 S12       29.97F
$$





USA.gov is the U.S. government's official web portal to all federal, state and local government web resources and services.